Wind_Speed
13 12 14 15 15 14 13 13 13 13 13 13 13 13 13 13 14 14 14 13 13 13 14 14 15 15 16 17 17 16 16 16 16 17 17 17 16 15 14 14 13 12 11 10 9 9 9 9 10 10 10 10 9 8 7 6 7 7 8 8 8 8 8 8 7 7 7 6 6 5 4 4 4 4 4 4 3 4 4 4 4 4 4 4 4
12 13 14 15 15 14 14 13 13 13 13 13 13 13 13 13 14 14 14 13 13 14 14 15 15 16 17 17 17 17 17 17 17 18 18 18 17 15 14 13 12 12 11 10 9 8 9 10 10 10 11 10 9 8 7 7 7 8 8 8 8 8 8 7 7 7 6 6 5 4 4 3 3 3 3 3 3 3 3 3 4 3 3 3 3
12 13 14 15 14 14 14 13 13 14 13 14 14 13 14 14 14 14 14 14 14 14 14 15 16 17 17 18 18 18 18 18 18 19 19 18 17 15 14 13 12 11 11 9 9 9 9 9 10 10 11 10 9 8 7 7 8 8 8 8 8 8 7 7 7 7 6 5 4 3 3 2 2 2 3 3 3 3 3 2 2 2 2 3 3
12 13 14 14 14 14 14 14 14 14 14 15 14 14 14 14 14 14 15 14 14 14 15 15 16 17 18 18 18 19 19 19 19 19 18 18 17 16 14 12 11 11 10 9 8 8 9 10 10 10 10 9 9 8 7 8 8 8 8 8 8 7 7 7 7 6 6 5 4 3 2 2 2 2 3 3 2 2 2 1 1 2 2 2 2
11 12 12 13 13 13 14 14 14 15 15 15 15 15 15 15 15 15 15 15 15 15 15 15 16 17 18 18 18 19 19 19 19 19 18 18 18 16 14 12 11 11 10 9 8 8 9 10 10 10 9 9 8 8 7 8 8 8 7 7 7 7 7 7 7 6 5 5 4 3 2 2 2 2 2 2 2 2 1 1 1 1 1 1 1
10 11 11 12 12 13 14 14 14 15 15 16 16 16 16 16 16 16 16 16 16 16 16 16 16 17 18 18 18 18 19 18 19 19 18 18 18 17 14 12 11 11 11 9 9 9 9 10 9 9 9 8 8 7 7 7 7 7 7 7 7 7 7 7 7 6 6 5 5 4 3 2 2 2 2 1 1 1 1 2 2 2 2 2 2
9 10 11 11 11 12 13 14 14 14 15 15 16 16 17 17 17 17 18 18 18 17 17 16 16 17 18 17 17 18 18 18 18 19 19 18 18 17 15 13 12 12 11 10 9 9 10 10 9 9 9 8 7 6 7 7 7 7 7 7 7 7 7 7 7 7 7 6 5 5 4 3 2 2 1 1 1 1 2 2 2 3 3 3 3
9 10 10 10 11 11 12 13 13 14 14 15 15 16 17 17 18 18 19 19 19 18 18 17 17 17 17 17 17 17 18 17 18 19 19 18 18 18 16 14 13 12 11 10 9 9 10 10 9 9 8 7 7 6 6 6 6 6 6 6 7 7 7 7 8 8 8 7 6 5 4 4 3 2 2 1 1 2 2 2 3 3 4 4 4
9 9 10 9 10 10 12 12 13 14 14 14 14 15 16 16 17 18 19 20 20 19 18 17 17 17 16 16 17 17 17 17 17 19 19 18 18 18 17 15 14 13 12 11 10 9 10 9 9 8 8 7 6 6 6 6 6 6 6 6 7 7 7 7 8 9 8 7 6 5 5 4 3 2 2 1 1 2 2 2 3 4 4 5 5
8 9 9 9 9 10 11 12 13 13 13 13 13 14 15 16 16 18 19 20 20 20 19 18 17 17 16 16 17 17 17 17 17 18 19 19 19 18 17 16 14 13 13 12 10 10 10 9 8 8 8 7 7 6 6 6 6 6 7 7 7 7 7 8 8 9 8 7 6 5 5 4 3 3 2 2 2 2 2 2 3 4 4 5 5
8 8 9 8 9 10 11 11 12 12 13 14 15 15 16 16 17 18 19 20 20 20 20 19 18 17 16 16 16 17 17 17 17 18 19 20 19 18 17 16 14 13 12 12 11 10 10 9 8 8 8 8 7 6 6 6 6 6 6 7 7 7 7 8 8 8 7 6 6 5 5 4 4 3 3 3 3 3 3 3 3 4 4 5 5
7 8 9 8 8 9 10 11 11 12 14 15 16 17 17 17 17 18 19 20 21 20 20 19 17 17 17 16 16 17 18 17 17 18 19 19 19 17 16 16 15 13 12 12 12 11 10 10 9 8 8 8 8 7 7 6 6 6 7 7 7 7 7 7 7 7 7 5 4 4 4 4 4 4 4 4 4 4 4 4 4 4 5 5 5
7 8 8 8 8 9 10 11 12 14 15 16 17 17 17 17 17 18 19 20 20 20 20 19 17 17 16 16 16 16 17 17 17 18 18 19 19 18 16 16 15 14 12 12 12 11 11 10 10 9 8 8 7 7 7 8 8 8 8 8 8 8 8 8 7 7 7 5 4 4 4 4 4 4 4 4 5 5 5 5 6 6 6 6 6
7 8 9 8 9 10 11 12 14 15 16 16 17 17 17 17 17 18 19 19 19 20 19 18 17 16 16 15 16 16 17 17 17 17 18 19 20 18 15 15 15 14 13 12 12 12 11 11 11 10 8 7 7 7 7 7 8 8 9 9 8 8 8 7 7 7 7 6 5 4 4 5 5 5 5 5 5 5 6 6 6 7 7 7 7
8 9 9 9 9 10 12 13 15 15 16 16 17 17 16 16 17 18 18 18 18 18 18 17 17 16 16 16 15 16 16 17 17 17 17 18 20 19 16 14 14 15 14 13 12 12 12 11 11 11 9 8 7 6 6 7 8 8 9 9 8 7 7 6 6 6 6 6 6 5 5 5 6 6 6 6 6 6 6 6 7 7 8 8 8
8 9 9 9 10 11 12 13 14 15 15 15 16 16 16 16 17 18 18 18 17 17 17 16 16 16 16 16 16 16 16 16 16 17 17 18 19 20 17 14 13 14 14 13 13 12 12 12 12 11 10 8 7 7 7 7 8 8 8 9 9 7 6 6 5 6 6 6 6 5 5 6 7 7 7 7 6 7 7 7 7 8 8 8 9
9 9 9 10 11 11 12 13 14 13 14 14 16 16 16 17 17 17 17 17 16 16 17 17 17 17 16 16 16 16 16 16 16 16 17 18 19 20 19 15 13 13 14 14 13 13 12 13 12 12 11 9 8 8 7 7 8 8 8 9 9 8 7 6 6 6 6 6 6 6 6 6 7 8 8 8 8 8 8 8 9 9 9 9 10
9 9 10 11 12 12 12 13 13 13 14 14 15 16 16 16 16 17 17 17 16 16 17 17 18 17 17 17 17 16 16 16 16 16 17 18 19 20 19 16 13 12 13 13 13 13 13 13 13 13 12 10 9 9 8 8 8 8 8 9 9 9 9 9 7 7 7 7 7 7 6 6 7 8 8 9 9 9 9 9 10 10 10 10 11
10 10 11 13 14 14 14 14 15 14 13 14 15 15 15 15 16 16 17 17 17 17 17 18 18 18 18 17 16 16 16 16 16 16 17 18 18 19 19 18 14 12 12 13 13 13 13 13 14 13 13 11 10 9 9 8 8 8 8 9 10 10 10 10 9 8 8 8 8 8 7 7 7 8 9 10 10 10 10 10 10 11 11 11 11
11 12 13 16 18 16 14 16 17 14 12 14 16 15 15 15 16 17 17 18 17 17 17 17 18 17 17 16 15 15 16 16 16 16 16 16 17 17 18 18 16 13 12 13 13 13 13 14 14 14 13 12 11 10 10 9 9 9 9 9 10 11 11 11 11 10 9 8 8 8 8 7 7 8 9 10 11 11 11 11 11 11 11 11 12
11 13 15 18 20 15 14 19 18 13 12 15 16 15 15 15 15 16 18 18 18 17 17 17 17 17 16 16 16 16 15 15 16 15 15 15 15 16 17 17 17 15 13 12 13 14 14 14 14 14 14 13 12 11 11 11 10 10 10 10 11 11 12 12 12 11 9 9 9 8 8 7 7 7 9 10 11 11 11 11 11 11 11 11 11
13 14 16 19 20 16 17 21 18 14 14 15 15 16 16 17 16 17 18 18 18 18 17 16 17 17 17 17 16 16 15 15 16 16 15 13 13 14 15 16 17 17 15 13 13 13 14 15 15 15 15 15 13 12 12 12 11 11 11 11 11 12 12 12 12 11 10 10 10 9 8 7 7 7 8 9 10 11 12 12 12 12 11 11 11
14 16 18 20 20 17 18 20 18 16 16 16 16 15 16 19 19 19 19 18 18 18 17 17 18 19 19 18 16 15 15 15 16 16 15 13 12 13 15 16 17 18 17 15 14 14 14 15 15 16 16 15 14 13 13 13 12 12 12 12 12 12 13 13 12 11 11 11 11 10 8 7 7 7 8 9 10 11 12 12 12 12 12 12 12
15 17 19 20 20 19 18 19 18 17 17 17 16 15 18 20 20 20 20 18 18 18 18 19 20 20 20 18 15 16 15 15 17 16 15 13 11 12 14 15 16 17 17 16 16 15 15 15 16 16 16 15 13 14 15 14 13 13 13 13 13 13 13 13 13 13 12 12 12 11 9 8 8 8 8 9 10 11 12 13 13 12 12 13 12
16 18 19 20 22 21 20 20 19 19 19 18 17 18 19 20 20 20 18 18 19 18 19 19 19 19 20 18 16 17 16 16 17 17 16 14 12 12 13 15 16 16 16 17 17 17 16 16 16 16 16 14 13 15 16 15 14 13 13 13 14 14 14 13 12 13 13 12 12 11 10 9 9 9 9 10 11 11 12 14 14 14 13 13 13
16 18 18 21 23 23 22 22 21 20 20 19 18 19 19 20 20 20 19 19 18 17 19 19 19 19 20 19 18 18 18 17 18 19 18 15 13 13 13 14 15 15 15 18 18 17 17 17 16 16 16 14 14 16 16 15 15 14 14 14 14 14 14 13 12 13 13 13 12 12 11 10 10 10 10 11 12 12 13 15 15 15 15 14 14
16 18 20 23 25 24 24 23 21 20 20 19 19 20 20 20 19 18 17 16 16 18 19 18 19 20 20 20 20 20 20 19 18 19 19 17 14 13 13 13 15 15 16 18 18 18 18 18 17 17 16 14 14 16 16 16 15 14 15 15 14 14 14 14 13 13 13 13 12 12 11 11 11 12 12 12 13 13 14 15 15 15 15 15 15
17 19 22 25 25 23 22 21 20 21 22 20 20 19 18 18 16 16 16 15 14 16 17 17 17 18 19 21 22 22 20 18 17 18 20 18 15 13 13 13 15 15 17 19 18 18 18 18 18 17 17 16 15 17 17 16 15 14 15 15 15 14 14 14 14 13 13 13 12 12 11 11 12 12 12 12 13 13 14 15 15 15 15 15 15
17 21 25 25 23 21 19 19 22 23 20 17 16 16 15 16 16 17 17 18 16 17 19 21 20 20 21 23 24 22 19 19 19 18 19 18 17 15 14 14 15 16 17 19 19 19 19 19 19 18 19 18 18 18 17 16 16 14 14 15 14 14 14 15 14 13 13 13 12 12 12 12 12 11 11 12 13 14 15 15 15 15 15 15 14
19 22 25 24 21 19 19 22 26 24 18 16 17 19 19 19 20 18 17 19 21 23 24 25 24 25 26 26 27 26 24 24 22 21 20 19 19 18 15 14 15 17 18 19 20 20 19 19 19 19 20 20 20 19 18 17 16 15 14 14 14 14 15 15 15 13 13 13 12 12 12 12 11 11 11 12 14 15 15 15 15 15 15 14 13
20 22 23 21 20 20 20 23 24 22 20 20 21 21 21 20 21 22 23 24 25 26 27 27 27 27 28 28 28 27 27 26 23 22 21 19 20 20 18 16 17 18 20 20 21 21 21 20 19 20 21 21 20 20 19 18 16 15 15 14 14 15 15 15 15 14 13 12 12 11 11 11 11 11 11 12 14 15 15 14 14 14 13 13 12
20 20 19 19 20 19 21 23 22 21 23 24 22 20 21 21 22 23 25 25 25 26 27 27 28 28 28 28 27 27 27 26 23 22 20 18 20 21 21 19 19 20 21 21 22 22 22 21 20 20 21 21 21 20 20 19 17 15 15 15 15 16 16 16 15 14 13 12 11 10 10 11 11 11 11 12 14 14 15 14 13 12 12 12 11
19 18 17 17 18 18 21 24 24 23 24 23 22 21 21 23 23 23 23 24 24 24 25 26 27 27 27 26 27 26 26 26 24 22 21 20 21 22 23 22 21 21 22 23 24 24 23 22 21 21 21 21 21 20 20 19 18 16 15 15 15 16 16 15 15 14 13 11 10 10 10 11 10 11 11 12 13 14 14 13 12 12 11 11 10
18 17 16 16 16 19 21 23 23 22 21 22 22 22 22 22 23 24 23 23 23 23 24 26 26 27 27 26 26 26 27 27 26 23 21 21 21 22 23 23 23 21 22 25 26 26 24 23 22 21 22 22 21 20 20 20 19 17 16 16 16 17 17 15 15 14 13 11 10 10 10 10 10 11 11 11 12 14 14 13 12 11 11 10 9
17 17 17 17 17 19 20 22 22 21 21 22 23 23 22 21 22 23 22 21 22 24 25 26 26 27 27 26 26 27 28 27 27 24 22 22 22 22 22 23 24 23 24 26 26 26 26 24 24 23 22 22 21 20 20 20 19 17 17 17 17 18 17 15 15 14 13 12 11 10 10 10 10 10 10 11 11 13 14 13 12 11 11 10 9
16 17 17 18 19 19 21 22 22 21 21 22 23 23 22 21 22 22 22 22 22 24 25 26 27 27 27 27 27 28 28 28 28 25 23 24 24 23 22 22 24 25 25 25 25 26 26 26 25 24 24 22 21 20 19 20 18 17 17 18 18 17 17 16 15 14 13 12 11 10 10 10 10 10 10 10 11 12 13 12 12 11 11 10 10
17 18 18 19 20 21 23 24 24 22 21 21 21 22 22 21 21 23 23 23 23 25 26 27 28 28 28 29 29 29 30 29 28 26 25 26 26 25 23 23 25 28 27 25 26 27 26 26 26 26 25 24 22 20 19 19 18 18 18 18 18 17 16 16 15 14 13 12 12 11 10 10 10 10 10 10 10 11 12 12 11 10 10 10 9
17 18 18 20 21 23 24 23 22 21 19 19 20 21 21 20 21 22 22 22 24 25 26 27 27 28 29 30 30 31 31 30 29 28 27 27 27 27 26 26 26 28 27 26 27 26 26 28 28 27 27 25 23 20 19 19 18 18 18 18 18 17 16 16 15 14 14 13 12 11 10 10 10 10 10 10 10 10 11 11 10 9 9 9 8
17 18 19 20 21 22 22 20 19 18 17 17 18 19 20 20 21 23 23 23 25 26 27 28 28 28 28 29 29 31 31 31 30 29 29 28 28 29 29 29 29 29 29 28 27 26 27 29 29 29 28 26 24 21 19 18 18 19 18 18 18 17 16 15 15 14 14 13 12 11 11 11 10 9 9 10 10 10 10 10 9 8 8 7 7
17 18 19 20 21 21 21 20 19 19 19 18 18 19 19 20 21 21 21 22 24 26 28 30 29 29 28 28 29 30 30 30 29 29 30 29 29 31 31 30 30 30 29 29 28 27 28 30 30 29 28 27 25 22 19 18 18 18 18 18 18 17 16 15 14 14 13 13 12 11 12 12 10 9 8 9 10 10 9 9 8 8 7 7 6
17 18 20 21 21 22 22 22 21 20 20 20 19 19 20 20 20 20 20 21 24 26 28 29 30 30 29 28 29 29 30 31 29 28 30 30 30 32 31 30 30 29 29 29 29 29 30 30 31 30 29 28 26 23 20 19 19 18 18 19 18 17 17 16 15 14 13 13 13 12 12 12 11 9 8 9 9 9 9 9 8 7 6 6 5
18 18 20 21 21 22 22 22 22 21 20 20 20 20 20 21 21 21 21 21 24 25 25 27 28 29 29 29 30 30 31 31 29 27 29 30 31 31 31 31 31 31 31 30 29 30 31 31 31 30 29 28 26 23 20 20 20 19 19 19 18 18 18 17 15 14 14 13 13 13 13 11 10 9 9 9 9 8 8 8 8 8 7 6 6
18 19 20 21 21 22 22 22 22 22 21 21 21 21 21 21 22 22 20 20 23 25 25 25 25 27 28 28 29 30 31 31 30 28 29 30 31 32 33 34 32 32 31 31 30 30 30 31 31 30 30 28 26 24 21 21 21 19 19 19 19 18 18 17 15 14 14 13 13 13 13 11 10 9 9 9 9 9 8 9 9 8 7 7 7
18 19 21 21 21 22 22 22 22 22 22 21 21 21 21 21 21 22 21 22 24 26 25 23 24 26 27 27 26 28 29 30 30 30 29 30 31 32 34 34 33 32 32 31 31 30 28 30 31 30 29 27 26 24 22 22 21 19 19 20 19 18 18 16 15 14 14 14 13 12 12 12 11 10 9 9 9 9 9 9 10 9 9 8 8
19 20 21 22 22 21 21 21 22 23 21 20 20 20 21 21 21 22 24 25 25 25 24 24 25 27 28 30 30 30 30 30 30 31 31 31 31 32 33 34 34 34 33 31 32 31 29 31 32 29 28 28 27 25 23 23 21 19 20 20 19 18 17 16 15 14 14 14 13 12 12 12 11 10 10 10 10 9 9 10 10 10 9 9 9
20 21 22 23 23 22 21 21 21 22 20 19 20 20 20 21 21 23 25 26 24 23 23 23 25 28 30 32 34 34 33 32 31 30 31 31 31 32 32 33 33 34 35 33 31 31 29 30 31 28 27 28 28 26 24 23 21 20 20 20 20 19 18 17 16 15 15 14 13 13 12 13 11 10 10 10 10 10 9 10 11 11 10 10 10
20 22 23 23 23 22 21 21 21 21 20 19 20 20 21 21 22 22 23 25 24 23 23 23 25 28 31 32 33 33 33 33 31 30 30 31 31 32 32 32 33 33 35 35 31 30 29 29 30 28 27 29 29 27 26 25 23 21 21 22 22 20 19 18 16 15 15 14 14 13 13 13 12 11 11 11 11 10 10 10 11 11 10 10 10
21 22 23 24 23 23 22 22 22 21 20 19 19 20 21 22 22 22 23 24 25 25 24 24 25 27 30 33 33 32 31 31 31 30 30 31 32 31 31 31 32 32 35 36 33 30 29 28 30 29 28 30 29 27 27 26 24 23 23 22 22 21 20 19 17 15 15 15 15 14 13 13 12 11 12 12 11 11 11 11 11 11 10 10 11
22 23 24 24 24 23 23 22 21 20 19 19 20 20 22 23 23 23 24 24 25 26 26 26 26 28 30 33 34 34 32 30 31 30 30 32 32 32 31 31 32 32 34 35 29 26 26 25 27 28 28 28 28 27 26 26 25 24 23 22 22 21 20 19 17 16 16 16 16 15 14 13 13 12 12 12 12 11 11 11 10 10 11 10 11
23 25 25 25 24 23 22 21 20 20 19 19 20 21 22 23 24 24 25 25 25 26 27 28 28 29 30 33 34 35 35 33 33 32 31 32 32 33 33 32 32 32 34 33 24 18 21 24 25 26 27 26 27 26 25 26 26 24 22 22 23 22 20 19 17 17 17 17 16 16 15 14 13 13 13 12 12 12 12 12 11 10 11 11 11
24 25 25 25 24 23 21 20 19 19 19 20 21 21 22 24 25 25 26 26 27 27 29 29 29 30 31 32 33 34 36 35 35 35 34 33 33 34 34 33 31 31 33 30 21 15 17 23 26 26 27 26 26 27 26 27 27 25 23 23 23 22 21 19 17 18 18 17 17 17 17 15 13 13 14 13 13 13 12 12 12 11 11 12 12
Wind_Direction
295 297 301 305 308 310 312 315 320 322 324 325 328 331 330 326 321 319 319 320 322 324 329 334 335 334 330 329 332 334 335 334 336 343 351 354 355 354 352 352 347 343 345 346 345 346 347 352 356 1 7 13 18 23 26 30 33 36 42 44 43 44 47 49 49 51 49 48 49 51 50 50 56 61 62 56 49 42 37 35 38 35 35 46 46
292 294 297 302 307 310 314 317 322 323 325 325 328 330 329 325 320 318 318 320 322 324 328 331 331 330 327 327 331 334 336 337 342 350 355 356 354 354 353 351 345 342 347 346 347 348 348 354 359 5 12 15 19 24 29 35 38 39 44 46 46 47 48 47 47 48 45 43 44 43 43 53 64 67 64 56 47 41 38 36 38 36 40 56 57
289 290 294 301 307 311 314 318 322 323 324 324 327 329 327 323 319 318 317 319 321 324 326 327 327 326 324 326 331 335 339 341 346 352 355 355 354 355 354 349 343 342 348 349 352 352 349 356 4 11 14 15 22 25 28 32 36 38 41 47 48 48 46 45 46 44 39 36 36 36 37 50 63 68 63 52 46 42 39 35 39 44 53 65 60
283 287 294 302 307 310 313 318 321 322 322 323 326 326 325 321 318 317 316 318 319 320 321 322 322 322 322 327 333 336 339 342 347 351 353 354 356 357 355 349 343 343 348 352 356 356 353 360 12 17 15 16 24 29 30 30 33 36 39 46 48 47 44 41 42 39 33 27 23 22 21 27 48 65 64 52 45 41 35 31 36 42 51 55 45
282 288 295 301 305 308 313 318 320 321 322 323 325 324 323 320 317 315 315 316 315 315 315 316 318 319 321 327 333 336 339 342 347 349 352 355 358 359 355 348 342 343 348 353 356 359 359 4 17 21 18 20 26 31 33 33 34 35 39 43 44 43 40 37 35 32 27 19 11 6 5 9 32 58 62 51 39 32 19 12 7 5 9 8 357
285 291 296 300 305 310 316 319 320 322 323 325 326 324 322 320 317 314 313 313 312 311 310 312 314 317 320 326 331 333 337 342 347 347 351 355 0 0 353 346 342 344 348 354 357 360 5 9 17 22 23 27 30 33 35 34 33 33 35 36 37 35 32 29 24 20 14 7 358 352 352 352 14 46 57 53 36 22 5 353 344 340 333 325 320
288 293 298 303 308 314 318 318 319 322 325 327 326 324 323 321 318 314 311 310 309 307 306 308 310 313 317 324 328 331 335 342 346 345 349 355 1 0 352 346 343 343 348 353 357 1 9 13 16 20 25 31 33 35 36 35 31 30 30 28 28 27 26 22 15 10 5 360 349 340 340 337 349 22 40 45 32 13 358 348 339 331 324 318 316
288 295 300 305 311 315 316 316 319 322 325 326 326 325 324 322 318 313 309 307 305 302 301 303 305 308 313 320 325 329 333 339 343 343 347 355 1 360 352 347 343 342 347 353 356 2 10 15 15 18 25 31 34 33 35 35 32 29 25 23 24 23 21 18 11 5 360 354 344 338 338 337 346 5 24 29 15 360 349 340 334 328 322 318 315
289 297 301 307 312 314 313 315 319 321 323 325 326 326 326 323 317 311 306 303 301 298 298 300 301 304 310 316 322 326 330 336 339 341 345 353 359 359 354 347 342 342 345 351 354 0 9 14 14 15 22 29 33 30 30 30 26 20 14 14 17 17 16 13 8 2 357 352 348 345 344 342 344 352 7 8 357 349 340 333 329 324 321 317 311
293 298 302 309 312 313 312 317 321 323 324 325 327 328 327 322 315 309 304 301 299 297 297 297 298 302 307 313 319 322 327 332 335 339 343 349 357 359 355 346 341 341 340 344 350 358 3 9 11 12 19 25 27 26 24 23 19 12 7 8 8 10 9 6 5 2 357 355 356 352 349 344 339 343 352 353 350 346 341 331 318 314 313 311 309
296 300 304 309 311 312 315 322 325 325 325 326 328 327 325 320 315 309 304 301 299 297 296 296 297 301 305 309 316 320 323 329 333 337 340 345 352 358 355 346 340 338 337 338 343 352 356 360 4 7 14 21 22 19 18 18 15 8 3 2 359 359 356 356 1 0 357 357 359 355 349 341 337 337 340 342 341 337 332 322 309 305 304 306 307
301 303 305 308 309 312 319 324 325 325 326 328 328 325 323 320 315 309 305 301 298 297 296 296 298 300 302 307 315 318 320 326 331 334 337 340 346 354 354 346 338 335 335 335 337 343 347 351 355 1 10 16 18 14 13 10 7 359 354 350 346 346 342 346 356 355 353 355 357 355 344 337 334 326 327 327 325 325 321 316 310 305 300 300 301
310 304 303 307 309 314 321 323 323 325 327 328 326 324 321 318 313 308 304 299 297 296 296 298 298 298 298 305 311 314 316 321 326 329 332 336 341 348 351 345 337 332 331 331 331 335 338 343 346 354 5 13 14 11 10 5 360 353 349 346 341 340 335 342 351 348 348 349 349 350 338 329 323 317 318 320 319 320 318 315 311 306 301 299 299
312 301 301 305 310 317 320 321 321 323 326 326 324 321 318 315 310 305 302 297 296 296 295 296 295 293 295 302 307 309 312 316 321 324 327 331 334 341 346 344 336 329 326 327 327 329 332 335 338 345 356 6 9 7 7 2 357 351 348 346 342 340 337 342 346 344 345 342 342 341 334 328 321 317 317 318 318 317 316 313 310 307 304 304 304
305 297 299 302 309 314 315 317 317 321 323 322 320 316 312 309 305 301 299 296 294 294 293 291 290 290 293 299 301 304 307 310 315 319 323 326 328 333 340 340 335 327 322 322 323 325 328 330 331 337 346 354 357 358 0 358 354 350 348 346 345 343 337 340 341 342 344 340 342 340 336 332 322 317 314 314 315 314 312 310 309 308 307 307 306
299 293 293 298 304 306 308 310 312 316 317 316 312 307 304 302 300 297 296 295 292 290 289 288 287 288 291 294 296 299 301 305 310 313 319 322 323 326 331 334 331 325 319 316 318 323 325 326 327 329 337 342 344 346 350 352 349 344 344 343 342 343 336 331 333 339 343 340 341 338 335 330 322 318 314 314 313 312 312 311 311 310 308 307 306
292 287 288 294 297 295 298 302 306 310 309 307 302 298 296 296 296 295 294 291 288 285 284 284 285 286 287 288 291 293 295 300 305 309 315 318 319 320 323 326 326 321 316 312 314 320 322 323 323 324 330 334 336 336 339 342 338 335 335 336 335 339 334 324 326 335 339 337 336 333 331 328 324 320 318 318 317 316 315 313 312 311 309 307 306
280 280 285 288 286 284 286 292 298 301 300 297 292 290 291 293 293 293 290 286 283 280 278 280 281 282 282 282 284 287 291 295 301 307 312 314 315 316 317 318 319 316 312 309 310 316 320 320 320 321 324 327 329 328 329 328 326 324 323 327 328 332 332 325 324 330 333 333 330 325 323 323 321 320 318 317 317 317 316 314 313 311 310 309 309
270 276 280 281 278 275 278 285 288 287 287 288 284 285 289 290 289 288 287 282 277 275 275 276 278 280 279 277 279 283 287 292 298 304 308 310 310 312 313 313 313 312 309 307 307 311 315 317 318 319 320 321 322 320 319 318 317 316 317 319 320 324 328 325 323 325 328 330 327 322 318 318 319 318 316 316 315 315 314 313 312 312 312 311 311
267 274 275 277 272 264 271 278 275 270 278 288 285 284 289 289 286 284 283 279 275 272 272 275 278 277 275 274 276 279 283 290 296 301 305 306 306 308 309 309 308 307 306 304 304 307 310 314 315 316 315 315 314 313 312 313 313 313 314 315 316 320 322 322 320 319 321 324 324 320 316 314 315 316 315 315 313 312 311 310 309 310 311 311 311
267 274 275 276 271 264 276 280 272 272 288 298 292 285 287 285 282 279 277 274 272 270 271 274 274 270 269 270 273 276 282 290 295 297 302 304 305 307 307 305 303 302 301 301 302 304 306 310 313 313 311 310 310 310 310 310 312 313 314 315 315 316 318 319 318 316 318 319 319 317 313 310 310 312 312 311 310 310 309 308 308 308 309 309 309
268 276 275 273 273 275 287 288 284 292 301 304 300 290 285 282 281 279 272 268 267 267 268 268 264 261 263 266 270 275 282 290 293 294 297 301 304 305 304 302 299 297 296 296 298 301 304 307 311 311 308 308 308 308 309 308 310 312 313 314 314 313 314 315 314 314 315 317 315 313 309 306 305 306 306 305 305 305 306 307 307 308 308 308 307
268 274 273 272 277 283 289 291 291 298 301 300 301 293 287 283 280 276 267 263 265 264 262 261 256 255 259 264 271 277 284 292 291 291 293 297 303 303 301 297 294 291 291 294 296 298 300 304 308 310 309 308 307 306 307 307 307 310 311 313 313 312 311 311 311 308 307 309 311 309 305 302 298 296 297 298 299 300 302 304 306 308 308 307 306
267 270 275 278 284 286 287 290 292 296 295 293 296 294 291 284 276 275 270 265 263 259 257 256 252 254 262 266 272 279 286 289 286 287 289 291 295 298 296 291 288 285 286 291 294 295 296 298 302 308 311 307 301 303 306 305 304 306 309 310 309 309 310 309 308 305 303 303 305 306 304 299 294 291 292 295 297 299 301 303 305 308 309 308 307
266 271 278 281 286 287 286 286 287 291 289 288 295 295 290 283 277 275 273 264 256 254 256 257 255 260 268 271 273 278 283 284 283 286 287 286 286 288 289 285 282 280 283 286 290 293 293 295 296 303 311 302 291 298 303 303 302 304 306 306 306 307 308 309 306 302 300 301 303 306 304 299 296 293 294 297 300 302 303 303 304 306 308 308 307
264 269 274 278 282 282 282 282 281 285 286 287 293 294 288 281 277 273 267 257 253 259 262 261 260 262 268 275 278 279 284 287 286 287 284 281 281 279 281 279 276 275 276 280 285 290 291 292 291 296 307 298 287 296 301 301 301 302 303 303 303 304 306 308 304 297 294 296 301 305 304 300 297 296 297 301 304 306 306 305 305 305 304 304 304
262 267 271 275 273 271 274 274 274 281 285 287 288 288 285 276 272 271 265 258 261 268 266 260 257 258 265 273 278 279 282 285 286 287 286 284 281 279 279 275 272 272 270 275 283 287 287 290 289 290 298 296 290 296 299 299 299 299 301 301 302 303 304 303 299 294 292 293 298 302 303 300 297 298 300 302 303 305 306 306 306 305 303 301 300
262 268 271 270 267 268 271 268 275 287 286 283 280 283 283 274 273 274 270 271 273 269 266 266 262 263 270 274 277 280 283 287 288 291 293 291 287 284 281 272 270 270 269 275 281 281 283 286 286 286 288 288 286 290 294 296 296 296 297 298 299 301 300 298 295 293 291 291 294 298 301 302 302 304 306 308 308 308 308 308 307 305 304 303 301
264 269 269 268 269 272 275 281 295 295 283 272 270 280 285 280 282 278 271 273 273 269 272 275 273 272 274 275 277 281 288 291 292 294 293 291 289 286 280 269 265 266 268 274 277 277 281 282 284 284 282 282 281 284 289 292 292 293 293 294 296 296 294 291 290 290 287 288 291 295 299 303 306 310 314 315 315 315 314 312 310 308 307 305 304
266 268 269 273 282 286 290 300 305 296 280 275 279 289 292 289 288 284 280 278 276 277 279 279 277 277 275 276 277 280 286 288 290 292 289 288 289 286 279 267 262 264 267 271 273 275 278 280 281 281 279 280 282 283 285 287 289 290 290 292 292 290 287 285 284 284 283 284 289 294 300 304 307 311 316 319 318 318 315 313 312 310 309 306 303
266 268 271 282 296 299 297 301 303 290 274 274 282 287 287 288 287 286 288 287 285 285 285 284 283 281 279 279 280 281 283 285 288 290 288 285 283 283 281 272 266 265 266 266 269 271 274 278 279 278 277 278 281 283 284 285 285 285 286 288 287 284 282 281 280 279 280 282 286 293 299 302 304 309 315 319 319 317 315 314 314 312 310 306 304
263 266 272 285 297 299 296 300 305 293 278 276 285 290 286 285 285 284 285 285 285 288 289 289 287 285 284 284 284 284 284 285 290 293 293 290 282 283 284 278 272 266 263 263 264 266 269 274 277 278 277 277 279 281 282 283 283 281 281 282 281 278 277 277 277 276 276 277 281 289 295 299 303 309 315 320 321 320 317 317 316 313 311 309 308
260 264 274 285 292 295 297 302 306 301 289 286 293 299 294 290 289 287 288 288 287 289 291 291 290 290 289 288 288 289 289 290 293 295 297 294 287 286 284 279 275 268 264 263 262 263 266 270 274 277 276 276 277 278 280 282 281 278 276 277 276 275 274 274 274 275 275 275 277 285 294 300 304 309 317 322 324 324 323 321 317 313 311 312 313
257 264 275 283 287 292 299 302 304 303 294 290 292 292 293 294 291 289 291 293 294 294 294 294 293 293 292 292 292 291 291 291 292 294 292 288 286 283 280 277 275 273 268 264 264 264 265 268 272 275 274 274 275 277 279 279 278 275 273 273 272 272 272 273 274 275 275 276 277 284 293 300 305 313 319 322 325 328 327 324 320 315 312 313 315
258 267 274 280 286 291 296 298 299 299 295 294 291 287 288 293 292 289 288 291 294 295 294 295 293 293 293 292 291 289 288 289 289 290 288 285 285 281 277 272 270 275 273 267 266 266 267 269 271 273 273 273 275 276 276 275 273 271 271 270 269 270 272 275 274 272 274 276 278 284 290 297 304 312 317 319 325 329 328 326 323 320 317 316 316
261 268 273 279 285 290 293 293 293 294 295 294 292 287 286 288 291 290 287 287 290 291 292 292 291 291 290 287 286 285 286 288 289 290 289 287 285 281 277 270 266 275 278 269 265 267 268 268 269 272 272 271 272 273 273 272 268 265 266 267 267 269 272 274 273 271 272 275 278 284 289 297 305 311 316 319 323 325 326 326 324 322 318 315 313
262 266 274 282 289 295 295 294 295 296 296 296 296 294 288 288 294 295 289 287 288 290 290 290 290 290 288 285 283 284 286 289 291 292 291 288 287 284 280 274 270 274 277 270 265 266 265 267 269 270 269 268 268 269 270 269 264 261 262 265 266 268 271 273 273 272 271 273 277 282 290 298 306 313 317 321 323 322 323 325 324 321 317 313 311
263 269 278 286 292 296 296 297 299 300 301 302 302 299 294 292 300 302 294 288 288 289 289 288 289 289 289 289 287 287 289 291 294 294 292 291 292 292 287 283 279 275 273 270 268 266 263 266 269 267 266 265 264 265 267 266 261 259 260 263 266 268 270 272 272 271 270 272 276 281 289 297 305 312 318 323 324 322 322 324 322 319 316 313 309
265 273 282 287 291 293 294 297 298 300 302 302 301 299 297 295 299 301 295 290 289 288 286 286 286 286 288 290 290 290 291 292 293 292 290 290 292 293 291 288 286 281 274 270 268 267 265 266 266 265 265 264 262 260 261 261 257 256 259 262 264 266 268 270 271 270 269 271 275 281 288 295 302 310 317 323 324 323 322 322 322 322 320 316 311
267 275 282 286 288 287 289 292 293 297 300 298 296 294 295 296 297 298 297 296 296 291 285 282 281 281 283 286 289 289 289 290 291 289 288 289 292 293 292 289 288 286 278 273 272 269 267 266 264 263 263 263 261 258 257 256 253 254 257 258 259 262 265 266 267 266 266 268 273 278 283 291 300 308 313 318 321 325 325 324 325 327 325 319 315
269 275 281 283 284 285 288 291 293 296 297 295 294 294 296 297 298 297 296 298 301 294 285 281 278 276 279 282 285 287 289 290 289 289 288 289 291 291 291 290 289 287 282 280 277 271 267 263 261 260 259 261 260 256 255 252 249 249 252 253 255 258 261 261 260 261 263 266 269 273 278 287 297 304 308 310 316 321 324 325 326 328 326 319 314
270 275 279 281 284 287 290 290 292 294 295 295 295 297 298 297 296 295 292 298 305 299 286 279 276 274 276 281 285 288 289 289 288 290 289 287 288 287 288 290 290 287 285 284 279 273 266 258 256 257 255 256 257 255 254 250 245 245 248 251 253 256 256 255 254 255 258 262 266 271 277 285 292 298 303 301 303 306 308 312 314 318 319 313 309
272 277 280 283 286 288 289 289 291 293 293 295 296 297 297 295 294 293 292 299 308 306 294 284 281 279 280 286 293 293 288 286 287 290 289 287 287 286 287 289 290 288 287 286 279 276 269 254 248 253 253 253 254 252 250 246 242 243 248 250 252 254 254 253 251 252 255 258 261 268 275 281 286 290 295 296 296 297 298 299 301 303 306 304 301
275 280 283 285 286 285 286 287 289 291 292 294 296 297 296 294 292 290 291 295 300 305 304 298 292 287 286 290 295 296 291 287 288 289 289 288 287 286 286 288 290 290 289 286 280 279 273 252 241 245 249 250 251 248 245 241 238 242 246 247 249 252 253 251 249 251 255 256 259 267 273 277 281 284 289 293 294 294 294 294 294 295 298 300 298
279 283 285 286 286 284 284 286 287 289 291 292 293 294 294 291 289 288 289 293 296 300 303 300 294 289 288 288 290 294 294 292 290 289 289 289 288 286 286 287 289 291 290 287 281 279 275 257 242 239 244 248 249 247 243 237 235 240 244 244 246 250 251 249 249 252 254 255 258 265 270 273 277 280 283 289 291 291 290 289 291 293 295 295 293
282 285 287 287 286 285 284 284 284 285 286 286 286 287 287 286 285 286 288 293 296 297 298 297 294 292 289 288 288 292 293 292 290 290 288 286 288 287 286 287 289 291 291 289 283 278 276 262 246 239 244 248 247 245 242 235 231 236 241 241 242 247 251 251 251 251 253 257 260 263 268 271 273 277 280 284 287 287 284 284 288 290 291 291 290
284 285 286 286 285 284 283 282 281 282 283 283 282 282 283 284 284 286 288 292 295 296 296 294 292 291 289 288 288 290 292 291 289 290 290 286 286 287 288 289 289 291 292 290 285 277 273 264 249 241 243 245 243 244 242 233 229 232 236 238 240 244 248 248 250 252 254 259 260 261 266 269 272 277 276 278 282 283 280 281 285 284 284 287 286
282 284 284 283 282 281 281 282 281 282 282 283 282 282 284 286 288 289 290 292 295 296 294 292 289 288 287 288 287 288 291 292 290 289 288 286 285 285 287 288 288 290 291 289 282 274 269 260 249 241 240 240 239 242 240 233 230 231 232 235 239 243 244 244 248 252 254 259 260 259 261 264 268 272 272 273 275 277 278 279 281 279 278 280 282
282 284 284 283 282 282 282 283 283 283 284 285 285 287 289 290 292 293 293 294 294 294 294 292 289 286 286 286 286 287 288 290 291 289 288 286 285 286 286 286 287 289 291 288 278 269 263 252 243 239 237 237 237 240 238 233 232 233 232 234 237 240 242 243 245 248 250 255 258 258 257 258 261 264 269 271 270 273 278 279 279 277 275 275 278
283 284 284 283 283 283 283 284 284 284 285 286 287 289 292 293 294 295 295 295 294 293 293 291 289 287 286 286 286 287 288 287 288 288 289 288 289 291 288 287 289 290 294 289 271 262 259 243 236 237 234 234 237 239 235 232 235 235 234 236 237 238 241 241 241 245 248 251 255 256 255 256 260 264 267 268 268 271 276 278 277 273 271 271 273
281 281 281 282 283 284 285 285 284 285 286 288 289 290 291 292 293 294 293 293 292 291 291 290 290 289 288 287 286 287 287 286 284 283 285 287 290 294 291 289 289 289 296 290 268 264 259 239 233 235 233 233 235 238 234 229 233 235 236 237 236 237 240 241 241 244 248 250 253 255 255 255 259 264 266 266 266 267 271 274 273 270 268 269 270
Height
5880 5880 5880 5880 5879 5879 5878 5878 5877 5877 5876 5875 5874 5873 5872 5871 5870 5869 5868 5867 5867 5866 5865 5865 5863 5862 5861 5860 5860 5858 5857 5856 5854 5853 5851 5850 5848 5847 5846 5845 5844 5843 5843 5842 5842 5841 5841 5840 5839 5839 5838 5837 5837 5837 5837 5837 5836 5836 5835 5835 5834 5834 5834 5834 5834 5834 5834 5833 5833 5833 5833 5832 5832 5832 5832 5832 5832 5832 5831 5831 5831 5831 5831 5831 5831
5879 5879 5879 5879 5878 5878 5878 5877 5876 5875 5875 5874 5873 5872 5871 5870 5869 5868 5867 5867 5866 5865 5865 5864 5863 5862 5861 5860 5859 5858 5857 5855 5853 5852 5851 5849 5848 5847 5846 5845 5844 5843 5843 5843 5842 5841 5840 5840 5839 5838 5838 5837 5837 5837 5837 5837 5836 5836 5835 5835 5834 5834 5834 5834 5834 5834 5834 5834 5834 5833 5833 5833 5833 5832 5832 5832 5832 5832 5832 5832 5831 5831 5831 5831 5831
5878 5878 5878 5878 5878 5877 5877 5876 5875 5874 5873 5872 5872 5871 5870 5869 5868 5867 5866 5866 5866 5865 5864 5863 5862 5861 5860 5859 5858 5857 5856 5854 5853 5851 5850 5849 5848 5847 5846 5845 5844 5843 5843 5843 5842 5841 5840 5840 5839 5838 5837 5837 5837 5837 5837 5837 5836 5836 5836 5835 5835 5835 5834 5835 5835 5834 5834 5834 5834 5834 5833 5833 5833 5833 5833 5833 5832 5832 5832 5832 5832 5831 5831 5831 5831
5877 5877 5877 5877 5877 5876 5876 5875 5874 5873 5872 5871 5871 5870 5869 5868 5867 5866 5866 5865 5865 5864 5863 5862 5862 5861 5860 5858 5857 5856 5855 5853 5852 5851 5851 5850 5848 5847 5846 5845 5844 5843 5843 5843 5842 5841 5840 5840 5839 5838 5838 5837 5837 5837 5837 5837 5836 5836 5836 5836 5835 5835 5835 5835 5835 5835 5835 5835 5834 5834 5834 5833 5833 5833 5833 5833 5833 5832 5832 5832 5832 5832 5832 5832 5832
5877 5877 5877 5876 5876 5875 5875 5874 5873 5872 5872 5871 5870 5869 5868 5867 5867 5866 5865 5865 5864 5863 5863 5862 5861 5860 5859 5858 5856 5855 5854 5853 5852 5851 5850 5849 5848 5847 5846 5845 5844 5843 5843 5843 5842 5842 5841 5840 5839 5838 5838 5838 5837 5837 5837 5837 5837 5836 5836 5836 5836 5836 5836 5835 5835 5835 5835 5835 5835 5834 5834 5834 5833 5833 5833 5833 5833 5833 5833 5832 5832 5832 5832 5832 5832
5876 5876 5876 5875 5875 5874 5874 5873 5872 5871 5871 5870 5870 5868 5868 5867 5866 5865 5864 5864 5863 5862 5862 5861 5860 5859 5858 5857 5856 5854 5853 5852 5852 5851 5850 5849 5848 5847 5846 5845 5844 5843 5843 5843 5843 5842 5841 5840 5839 5839 5838 5838 5838 5838 5838 5837 5837 5837 5836 5836 5836 5836 5836 5836 5835 5835 5835 5835 5835 5834 5834 5834 5834 5833 5833 5833 5833 5833 5833 5833 5833 5833 5833 5832 5832
5875 5875 5874 5874 5874 5873 5873 5872 5871 5871 5870 5870 5869 5868 5867 5866 5865 5864 5864 5863 5862 5861 5861 5860 5859 5858 5857 5856 5855 5854 5853 5852 5851 5850 5850 5849 5848 5847 5846 5845 5844 5843 5843 5843 5843 5842 5841 5840 5840 5839 5839 5838 5838 5838 5838 5838 5838 5837 5837 5836 5836 5836 5836 5836 5835 5835 5835 5835 5835 5835 5834 5834 5834 5833 5833 5833 5833 5833 5833 5833 5833 5833 5833 5833 5833
5874 5874 5873 5873 5873 5872 5872 5871 5871 5870 5870 5869 5868 5867 5866 5866 5865 5864 5863 5862 5861 5860 5860 5859 5858 5857 5856 5855 5854 5853 5853 5852 5851 5850 5849 5849 5848 5847 5846 5845 5844 5843 5843 5843 5842 5842 5841 5841 5840 5839 5839 5839 5838 5838 5838 5838 5838 5837 5837 5837 5836 5836 5836 5836 5836 5835 5835 5835 5835 5835 5834 5834 5834 5834 5833 5833 5833 5833 5833 5833 5833 5834 5834 5833 5833
5873 5873 5873 5873 5872 5872 5871 5871 5870 5870 5869 5869 5868 5867 5866 5865 5864 5863 5862 5861 5860 5859 5858 5858 5857 5856 5855 5855 5854 5853 5852 5852 5851 5850 5849 5848 5848 5847 5846 5845 5844 5844 5843 5843 5842 5842 5842 5841 5840 5840 5839 5839 5839 5838 5838 5837 5837 5837 5837 5837 5836 5836 5836 5836 5836 5835 5835 5835 5835 5834 5834 5834 5834 5834 5833 5833 5833 5833 5833 5833 5833 5833 5833 5833 5833
5872 5872 5872 5872 5871 5871 5871 5870 5870 5869 5869 5868 5867 5866 5865 5864 5863 5862 5861 5860 5859 5858 5857 5856 5856 5855 5855 5854 5853 5852 5852 5851 5851 5849 5848 5848 5848 5847 5846 5845 5844 5844 5843 5843 5843 5842 5842 5842 5841 5840 5840 5839 5839 5838 5838 5837 5837 5837 5836 5836 5836 5836 5836 5836 5835 5835 5835 5835 5834 5834 5834 5834 5834 5834 5833 5833 5833 5833 5833 5833 5833 5833 5833 5833 5833
5872 5872 5871 5871 5871 5871 5870 5870 5869 5869 5868 5867 5866 5865 5864 5863 5862 5860 5859 5858 5857 5856 5856 5855 5854 5854 5854 5853 5852 5851 5851 5851 5850 5849 5848 5847 5847 5847 5846 5845 5844 5844 5844 5843 5843 5843 5842 5842 5841 5840 5840 5839 5839 5838 5838 5837 5837 5837 5836 5836 5836 5836 5836 5835 5835 5835 5835 5835 5834 5834 5834 5834 5834 5834 5834 5833 5833 5833 5833 5832 5832 5832 5832 5833 5833
5871 5871 5871 5870 5870 5870 5870 5870 5869 5868 5867 5866 5865 5863 5862 5861 5860 5859 5858 5857 5856 5855 5854 5854 5854 5853 5853 5852 5851 5850 5850 5850 5849 5848 5847 5847 5847 5847 5846 5845 5844 5844 5844 5843 5843 5842 5842 5842 5841 5840 5840 5839 5839 5838 5838 5837 5837 5836 5836 5836 5836 5836 5836 5835 5835 5835 5835 5834 5834 5834 5834 5834 5834 5834 5834 5834 5833 5833 5833 5832 5832 5832 5832 5832 5832
5870 5870 5870 5870 5870 5869 5869 5869 5868 5867 5866 5865 5863 5862 5861 5860 5859 5858 5857 5855 5855 5854 5853 5853 5853 5852 5851 5851 5850 5850 5849 5848 5848 5847 5847 5846 5846 5847 5847 5845 5844 5844 5844 5843 5843 5842 5842 5842 5841 5840 5840 5839 5838 5838 5837 5837 5836 5836 5836 5835 5835 5835 5835 5835 5834 5834 5834 5834 5834 5834 5834 5834 5834 5834 5834 5834 5833 5833 5833 5833 5832 5832 5832 5832 5832
5869 5869 5869 5869 5869 5869 5868 5867 5866 5865 5864 5863 5862 5861 5860 5859 5858 5857 5855 5854 5853 5853 5852 5852 5852 5851 5850 5850 5849 5849 5848 5847 5847 5846 5846 5845 5845 5846 5846 5845 5844 5843 5843 5843 5843 5842 5842 5842 5841 5840 5840 5839 5838 5838 5837 5837 5836 5836 5835 5835 5835 5835 5834 5834 5834 5834 5834 5834 5834 5834 5834 5834 5834 5835 5834 5834 5834 5833 5833 5833 5833 5832 5832 5832 5831
5868 5869 5868 5868 5868 5867 5866 5865 5864 5863 5863 5862 5860 5859 5858 5857 5856 5855 5854 5853 5852 5852 5851 5851 5850 5850 5849 5849 5848 5848 5847 5846 5846 5846 5845 5845 5844 5844 5845 5845 5844 5843 5843 5843 5842 5842 5842 5841 5841 5840 5840 5839 5838 5838 5837 5837 5836 5836 5835 5835 5835 5835 5835 5835 5834 5834 5834 5834 5834 5834 5834 5834 5834 5835 5834 5834 5834 5834 5833 5833 5833 5832 5832 5832 5832
5868 5868 5868 5867 5867 5866 5864 5863 5862 5861 5861 5860 5858 5857 5856 5855 5855 5853 5853 5852 5851 5851 5850 5850 5849 5849 5848 5848 5847 5847 5846 5846 5845 5845 5845 5844 5843 5843 5844 5845 5844 5843 5842 5842 5842 5842 5841 5841 5840 5840 5839 5839 5838 5838 5837 5837 5836 5836 5836 5835 5835 5835 5835 5835 5835 5834 5834 5834 5834 5834 5834 5834 5834 5834 5834 5834 5834 5833 5833 5833 5832 5832 5832 5832 5832
5867 5867 5867 5866 5865 5863 5862 5861 5860 5859 5858 5857 5856 5855 5855 5854 5853 5852 5851 5851 5850 5850 5849 5848 5848 5847 5847 5846 5846 5846 5845 5845 5845 5844 5844 5843 5842 5841 5842 5844 5844 5843 5842 5842 5842 5841 5841 5840 5840 5839 5839 5838 5838 5837 5837 5837 5836 5836 5836 5836 5835 5835 5835 5835 5835 5834 5834 5834 5833 5833 5833 5833 5834 5834 5834 5834 5834 5833 5833 5832 5832 5832 5832 5831 5831
5866 5866 5865 5864 5863 5861 5860 5859 5858 5857 5856 5855 5854 5854 5853 5853 5852 5851 5850 5850 5849 5849 5848 5847 5846 5846 5846 5845 5845 5844 5844 5844 5844 5844 5843 5843 5842 5841 5840 5842 5843 5843 5842 5842 5841 5841 5841 5840 5840 5839 5839 5838 5838 5837 5837 5837 5836 5836 5836 5836 5835 5835 5835 5835 5834 5834 5834 5833 5833 5833 5833 5833 5833 5833 5834 5833 5833 5833 5832 5832 5832 5831 5831 5831 5831
5864 5864 5864 5862 5860 5858 5857 5856 5855 5854 5853 5853 5853 5853 5852 5852 5851 5850 5849 5848 5848 5847 5847 5846 5845 5845 5844 5844 5843 5843 5843 5843 5843 5843 5842 5842 5841 5840 5839 5839 5841 5842 5841 5841 5841 5840 5840 5840 5839 5838 5838 5838 5837 5837 5837 5837 5836 5836 5836 5836 5835 5835 5835 5834 5834 5834 5833 5833 5833 5833 5832 5832 5833 5833 5833 5833 5833 5832 5832 5831 5831 5831 5831 5831 5830
5863 5863 5862 5859 5855 5854 5855 5854 5851 5850 5852 5852 5852 5852 5852 5850 5849 5848 5847 5846 5846 5846 5845 5845 5844 5843 5842 5842 5842 5842 5842 5842 5842 5842 5842 5841 5840 5839 5838 5838 5839 5840 5841 5840 5840 5840 5840 5840 5839 5838 5838 5837 5837 5837 5836 5836 5836 5836 5835 5835 5835 5835 5834 5834 5834 5834 5833 5833 5833 5832 5832 5832 5832 5832 5832 5832 5832 5832 5831 5831 5830 5830 5830 5830 5830
5862 5861 5860 5856 5852 5853 5854 5851 5850 5851 5852 5852 5852 5851 5850 5848 5847 5846 5846 5845 5845 5844 5844 5844 5843 5842 5841 5841 5841 5841 5841 5841 5840 5841 5841 5841 5840 5839 5838 5837 5837 5838 5839 5840 5839 5839 5839 5839 5838 5838 5837 5837 5837 5836 5836 5835 5835 5835 5835 5834 5834 5834 5834 5834 5834 5833 5833 5833 5832 5832 5832 5831 5831 5831 5832 5832 5831 5831 5831 5830 5830 5829 5829 5829 5829
5860 5859 5857 5853 5852 5854 5854 5850 5850 5852 5851 5851 5850 5849 5848 5846 5845 5844 5843 5843 5843 5843 5843 5842 5841 5840 5839 5839 5839 5839 5840 5840 5840 5840 5840 5840 5839 5838 5837 5836 5836 5836 5837 5838 5839 5838 5838 5837 5837 5837 5836 5836 5836 5836 5835 5835 5834 5834 5834 5834 5834 5834 5833 5833 5833 5833 5832 5832 5832 5832 5831 5831 5831 5831 5831 5831 5831 5830 5830 5830 5829 5829 5828 5828 5828
5858 5857 5855 5852 5852 5854 5853 5850 5850 5850 5849 5849 5848 5847 5845 5844 5843 5843 5841 5841 5842 5842 5841 5840 5839 5838 5837 5837 5838 5839 5838 5838 5839 5839 5838 5839 5839 5838 5837 5836 5835 5834 5835 5836 5837 5838 5837 5836 5836 5835 5835 5835 5835 5835 5834 5834 5834 5833 5833 5833 5833 5833 5833 5832 5832 5832 5832 5831 5831 5831 5830 5830 5830 5830 5830 5830 5830 5830 5830 5829 5829 5828 5828 5827 5827
5856 5855 5853 5851 5851 5851 5850 5849 5848 5847 5847 5846 5846 5844 5843 5842 5842 5840 5839 5840 5841 5840 5839 5838 5837 5836 5835 5836 5838 5838 5837 5838 5838 5838 5837 5837 5837 5837 5836 5835 5834 5834 5833 5834 5835 5836 5836 5835 5835 5834 5834 5834 5834 5834 5834 5833 5833 5833 5832 5832 5832 5832 5832 5832 5831 5831 5831 5830 5830 5830 5830 5830 5829 5829 5829 5829 5829 5829 5829 5828 5828 5828 5827 5827 5826
5855 5854 5853 5851 5850 5849 5848 5846 5845 5845 5844 5843 5843 5843 5842 5841 5840 5838 5838 5839 5840 5838 5837 5836 5836 5836 5835 5835 5838 5838 5837 5837 5837 5836 5836 5836 5836 5836 5835 5834 5833 5833 5833 5833 5833 5834 5834 5834 5834 5834 5833 5833 5833 5833 5833 5833 5832 5832 5832 5832 5831 5831 5831 5831 5831 5830 5830 5829 5829 5829 5829 5829 5829 5828 5828 5828 5828 5828 5828 5828 5827 5827 5827 5826 5826
5854 5853 5852 5850 5848 5847 5845 5844 5843 5843 5842 5841 5841 5841 5840 5839 5838 5838 5838 5839 5838 5837 5836 5836 5837 5837 5835 5834 5836 5837 5836 5836 5835 5834 5835 5835 5834 5834 5834 5833 5832 5832 5832 5832 5832 5832 5832 5833 5833 5833 5833 5832 5832 5832 5832 5832 5832 5831 5831 5831 5831 5830 5830 5830 5830 5829 5829 5829 5828 5828 5828 5828 5828 5828 5827 5827 5827 5827 5827 5827 5826 5826 5826 5825 5825
5853 5852 5850 5848 5845 5843 5843 5842 5842 5842 5841 5840 5840 5839 5838 5838 5837 5837 5837 5837 5838 5837 5835 5836 5837 5837 5836 5834 5834 5835 5834 5834 5834 5833 5833 5833 5833 5833 5833 5833 5832 5831 5831 5831 5831 5831 5831 5831 5831 5832 5832 5831 5831 5831 5831 5831 5831 5831 5830 5830 5830 5830 5829 5829 5828 5828 5828 5828 5828 5828 5827 5827 5827 5827 5827 5826 5826 5826 5826 5826 5825 5825 5824 5824 5823
5852 5850 5847 5843 5840 5840 5841 5841 5842 5842 5840 5838 5838 5837 5837 5837 5837 5837 5836 5835 5836 5836 5834 5835 5836 5836 5835 5833 5832 5833 5832 5832 5833 5832 5832 5831 5832 5833 5832 5831 5830 5830 5830 5830 5829 5829 5829 5829 5830 5830 5830 5830 5830 5830 5830 5830 5830 5830 5830 5829 5829 5829 5828 5828 5827 5827 5827 5827 5827 5827 5827 5827 5826 5826 5826 5825 5825 5825 5825 5824 5824 5823 5823 5822 5822
5851 5847 5843 5840 5839 5840 5841 5843 5843 5842 5840 5837 5836 5836 5836 5836 5836 5837 5836 5836 5836 5836 5835 5835 5835 5834 5833 5832 5831 5832 5831 5831 5832 5832 5831 5830 5830 5831 5831 5830 5829 5828 5828 5828 5827 5827 5827 5828 5828 5828 5828 5829 5829 5829 5829 5829 5829 5829 5829 5829 5828 5828 5828 5827 5827 5826 5826 5826 5826 5826 5826 5826 5826 5825 5825 5824 5824 5824 5823 5823 5822 5822 5822 5821 5821
5849 5845 5841 5840 5842 5844 5845 5846 5844 5842 5841 5839 5838 5837 5837 5836 5836 5837 5837 5838 5838 5837 5836 5836 5836 5835 5834 5833 5833 5832 5831 5830 5831 5831 5831 5830 5829 5829 5829 5829 5828 5827 5827 5826 5825 5825 5826 5826 5826 5826 5827 5827 5827 5827 5827 5827 5828 5828 5828 5828 5828 5827 5827 5827 5826 5826 5826 5825 5825 5825 5825 5825 5825 5824 5824 5823 5823 5823 5822 5821 5821 5821 5820 5820 5820
5847 5844 5843 5843 5844 5846 5845 5844 5842 5841 5841 5839 5839 5837 5836 5836 5836 5837 5837 5837 5838 5837 5837 5837 5836 5836 5835 5834 5833 5832 5831 5830 5831 5831 5831 5831 5830 5828 5827 5827 5827 5826 5825 5824 5823 5823 5823 5824 5824 5825 5825 5825 5825 5825 5825 5826 5826 5827 5827 5827 5827 5827 5826 5826 5826 5825 5825 5825 5825 5824 5824 5824 5824 5823 5823 5823 5822 5822 5821 5820 5820 5820 5819 5819 5818
5846 5845 5845 5844 5843 5843 5842 5841 5840 5840 5839 5838 5838 5837 5836 5836 5836 5836 5836 5836 5836 5836 5836 5836 5835 5835 5834 5834 5832 5831 5831 5830 5830 5830 5830 5831 5830 5828 5826 5825 5825 5824 5823 5822 5821 5821 5822 5822 5822 5823 5823 5823 5824 5824 5824 5824 5825 5826 5826 5826 5826 5826 5826 5825 5825 5825 5824 5824 5824 5824 5823 5823 5823 5823 5822 5822 5821 5821 5820 5819 5819 5819 5818 5818 5818
5844 5844 5844 5843 5841 5840 5840 5839 5839 5839 5838 5838 5838 5837 5836 5836 5836 5836 5836 5835 5835 5835 5834 5834 5834 5833 5833 5832 5831 5830 5829 5828 5827 5827 5827 5828 5828 5827 5826 5825 5823 5823 5822 5821 5820 5819 5820 5820 5820 5821 5821 5822 5822 5822 5822 5822 5823 5824 5824 5824 5825 5824 5824 5824 5824 5823 5823 5823 5823 5823 5822 5822 5822 5822 5821 5821 5820 5820 5819 5818 5818 5818 5818 5817 5817
5842 5842 5842 5841 5840 5839 5838 5837 5837 5837 5837 5837 5836 5835 5835 5835 5835 5835 5835 5835 5834 5834 5833 5832 5832 5832 5831 5831 5830 5829 5827 5826 5825 5825 5826 5826 5825 5824 5825 5825 5823 5822 5821 5819 5818 5818 5818 5818 5819 5819 5819 5820 5820 5820 5820 5821 5821 5822 5822 5823 5823 5823 5823 5823 5823 5822 5822 5822 5822 5822 5822 5821 5821 5821 5821 5820 5820 5819 5818 5817 5817 5817 5817 5816 5816
5840 5840 5840 5840 5838 5837 5837 5836 5835 5836 5836 5835 5834 5834 5834 5834 5833 5833 5833 5833 5832 5831 5830 5830 5829 5830 5829 5829 5827 5826 5826 5825 5824 5824 5824 5823 5822 5822 5823 5823 5822 5821 5820 5818 5818 5817 5817 5817 5817 5817 5818 5818 5818 5818 5819 5819 5820 5820 5820 5821 5821 5821 5821 5822 5822 5822 5821 5821 5821 5821 5821 5821 5820 5820 5820 5819 5818 5818 5817 5817 5816 5816 5816 5816 5815
5838 5838 5837 5836 5836 5836 5835 5834 5834 5835 5835 5833 5832 5832 5833 5833 5832 5831 5832 5831 5830 5829 5828 5827 5827 5827 5827 5826 5825 5824 5824 5823 5823 5823 5823 5821 5820 5821 5821 5821 5821 5820 5818 5817 5816 5815 5815 5816 5816 5816 5816 5816 5816 5817 5817 5817 5818 5819 5819 5819 5819 5819 5820 5821 5821 5821 5821 5820 5820 5820 5820 5820 5819 5819 5819 5818 5817 5817 5817 5816 5816 5815 5815 5815 5815
5836 5835 5834 5833 5833 5834 5834 5833 5833 5833 5832 5832 5831 5831 5831 5831 5831 5830 5830 5829 5828 5827 5826 5825 5825 5825 5824 5823 5823 5822 5822 5822 5822 5822 5822 5820 5819 5819 5819 5818 5818 5818 5817 5815 5814 5814 5814 5813 5814 5814 5814 5814 5814 5815 5815 5816 5816 5817 5817 5817 5818 5818 5819 5819 5819 5820 5820 5819 5819 5819 5819 5819 5818 5818 5817 5817 5816 5816 5816 5815 5815 5815 5815 5814 5814
5833 5833 5833 5832 5832 5832 5832 5831 5831 5830 5830 5830 5830 5830 5829 5829 5829 5828 5828 5827 5826 5825 5824 5824 5823 5822 5821 5821 5821 5821 5820 5820 5821 5820 5820 5819 5817 5817 5817 5816 5816 5815 5815 5814 5812 5813 5813 5812 5812 5812 5812 5812 5812 5813 5813 5814 5814 5815 5815 5816 5816 5817 5817 5818 5818 5818 5818 5818 5818 5818 5818 5818 5818 5817 5816 5816 5815 5815 5815 5815 5815 5814 5814 5814 5814
5832 5832 5831 5830 5830 5830 5829 5829 5828 5828 5828 5828 5827 5827 5827 5827 5827 5826 5825 5825 5824 5823 5822 5821 5820 5819 5819 5818 5818 5818 5818 5818 5819 5818 5817 5816 5815 5814 5814 5814 5814 5813 5812 5812 5810 5810 5811 5811 5810 5810 5810 5810 5810 5811 5811 5811 5812 5813 5814 5815 5815 5815 5816 5816 5817 5817 5817 5817 5817 5817 5817 5817 5817 5816 5815 5815 5814 5814 5814 5814 5814 5814 5813 5813 5813
5830 5830 5829 5828 5828 5827 5827 5827 5826 5826 5826 5826 5825 5825 5825 5825 5824 5824 5823 5822 5821 5820 5819 5818 5817 5817 5816 5815 5815 5814 5814 5814 5815 5815 5814 5814 5813 5811 5811 5811 5810 5809 5809 5809 5808 5808 5809 5809 5808 5808 5809 5808 5808 5809 5809 5809 5810 5811 5812 5813 5813 5813 5814 5815 5816 5816 5816 5816 5816 5817 5817 5816 5816 5815 5815 5814 5813 5813 5813 5814 5813 5813 5813 5812 5813
5828 5827 5826 5826 5825 5825 5825 5825 5825 5825 5824 5824 5823 5823 5823 5823 5822 5822 5821 5820 5819 5817 5816 5815 5815 5814 5813 5812 5812 5811 5810 5810 5811 5812 5811 5811 5811 5809 5808 5807 5807 5806 5806 5807 5807 5806 5806 5806 5806 5807 5807 5807 5807 5807 5807 5807 5808 5810 5810 5811 5811 5812 5812 5813 5814 5814 5815 5815 5815 5815 5816 5815 5815 5814 5814 5814 5813 5813 5813 5812 5812 5813 5813 5812 5812
5826 5825 5824 5824 5824 5823 5823 5823 5823 5823 5822 5822 5821 5821 5821 5821 5820 5819 5818 5817 5816 5814 5813 5813 5812 5811 5810 5810 5809 5809 5808 5807 5807 5808 5808 5807 5807 5806 5805 5805 5804 5803 5803 5804 5805 5804 5803 5803 5804 5805 5805 5805 5805 5805 5806 5806 5806 5807 5808 5809 5810 5810 5811 5811 5812 5812 5813 5813 5814 5814 5814 5814 5814 5813 5813 5813 5813 5813 5813 5812 5812 5812 5813 5812 5812
5823 5823 5822 5822 5822 5822 5821 5821 5821 5821 5820 5820 5820 5819 5819 5818 5818 5817 5816 5816 5814 5812 5811 5810 5809 5807 5807 5807 5807 5806 5806 5804 5804 5805 5805 5804 5804 5803 5802 5802 5801 5800 5800 5801 5801 5801 5801 5800 5801 5802 5802 5802 5803 5803 5804 5804 5804 5805 5806 5807 5808 5809 5810 5810 5810 5811 5811 5812 5812 5813 5813 5813 5812 5812 5812 5812 5812 5812 5812 5812 5812 5812 5812 5811 5811
5821 5820 5820 5820 5820 5820 5820 5819 5819 5818 5818 5818 5817 5817 5816 5816 5816 5815 5814 5813 5813 5811 5809 5807 5806 5805 5804 5804 5805 5804 5804 5802 5801 5801 5802 5801 5801 5800 5799 5797 5797 5797 5797 5798 5797 5797 5798 5798 5799 5799 5799 5799 5800 5801 5802 5801 5802 5804 5805 5805 5807 5808 5808 5809 5809 5810 5810 5810 5811 5811 5811 5811 5811 5811 5811 5811 5811 5811 5811 5811 5811 5811 5811 5810 5810
5818 5818 5818 5818 5818 5818 5818 5818 5817 5816 5816 5816 5815 5815 5814 5813 5813 5812 5811 5811 5810 5809 5808 5806 5805 5803 5802 5802 5802 5802 5801 5799 5798 5798 5799 5799 5798 5797 5796 5794 5794 5793 5793 5794 5793 5793 5795 5795 5795 5795 5796 5797 5798 5799 5800 5800 5801 5802 5802 5804 5805 5806 5807 5807 5808 5809 5809 5809 5809 5809 5810 5810 5810 5810 5810 5810 5810 5810 5810 5810 5810 5810 5810 5809 5809
5815 5815 5815 5815 5816 5816 5816 5816 5815 5814 5814 5814 5813 5812 5812 5811 5811 5810 5809 5808 5807 5807 5806 5805 5804 5802 5801 5799 5799 5798 5798 5796 5796 5795 5795 5795 5795 5794 5793 5792 5791 5790 5790 5790 5790 5790 5791 5792 5792 5791 5792 5794 5796 5797 5798 5798 5798 5799 5800 5801 5803 5804 5805 5805 5806 5807 5807 5808 5807 5807 5808 5809 5809 5809 5809 5809 5809 5809 5809 5810 5810 5809 5809 5808 5808
5813 5813 5813 5813 5813 5814 5814 5814 5813 5812 5812 5812 5811 5810 5810 5809 5809 5808 5807 5806 5805 5804 5803 5803 5802 5801 5799 5798 5797 5796 5796 5794 5793 5792 5791 5791 5791 5791 5790 5789 5789 5788 5786 5785 5786 5786 5786 5788 5789 5790 5790 5792 5794 5795 5796 5796 5796 5797 5798 5798 5800 5801 5802 5803 5804 5805 5805 5806 5806 5806 5807 5807 5807 5807 5807 5807 5808 5808 5808 5808 5808 5808 5807 5807 5806
5811 5810 5810 5810 5811 5811 5811 5811 5810 5810 5809 5809 5809 5808 5807 5807 5806 5806 5805 5804 5802 5801 5801 5800 5799 5798 5797 5795 5794 5794 5794 5792 5791 5790 5789 5787 5787 5787 5787 5787 5786 5785 5783 5781 5781 5781 5781 5782 5786 5789 5790 5790 5792 5793 5793 5794 5794 5795 5795 5796 5797 5799 5800 5801 5802 5802 5803 5804 5804 5804 5805 5805 5805 5805 5805 5806 5806 5807 5806 5807 5807 5807 5806 5806 5805
5808 5808 5808 5808 5808 5809 5809 5809 5808 5807 5807 5807 5806 5805 5805 5804 5803 5803 5802 5801 5800 5799 5798 5798 5797 5796 5794 5792 5791 5791 5791 5791 5789 5787 5786 5785 5784 5784 5784 5784 5783 5782 5780 5778 5777 5777 5777 5778 5781 5785 5787 5787 5789 5790 5790 5791 5791 5792 5793 5794 5795 5796 5798 5799 5800 5801 5802 5802 5802 5803 5803 5803 5803 5803 5803 5804 5804 5805 5805 5805 5805 5805 5805 5805 5805
5806 5806 5806 5805 5806 5806 5806 5806 5806 5805 5804 5804 5803 5803 5802 5801 5800 5800 5799 5799 5798 5797 5796 5795 5794 5793 5791 5790 5789 5788 5788 5788 5786 5785 5784 5782 5781 5781 5781 5780 5780 5778 5776 5775 5775 5774 5773 5774 5777 5779 5782 5784 5786 5787 5788 5789 5789 5790 5791 5793 5793 5794 5796 5797 5798 5798 5799 5800 5801 5801 5802 5801 5801 5801 5802 5802 5803 5803 5803 5803 5804 5804 5804 5804 5804
5804 5804 5803 5803 5803 5804 5804 5804 5803 5803 5802 5801 5801 5800 5799 5798 5798 5797 5796 5796 5795 5794 5793 5792 5791 5790 5789 5787 5786 5786 5785 5784 5783 5782 5781 5780 5779 5778 5778 5778 5777 5774 5773 5773 5773 5773 5772 5772 5774 5776 5778 5780 5783 5784 5785 5787 5788 5788 5789 5790 5791 5792 5794 5795 5795 5796 5797 5798 5799 5799 5799 5800 5800 5799 5800 5801 5801 5802 5802 5802 5802 5803 5803 5802 5802